Skip Page Navigation
NASA JPL Caltech
NASA Logo - Jet Propulsion Laboratory + View the NASA Portal
+ Near-Earth Object (NEO) Program
Search JPL
JPL Home Earth Solar System Stars & Galaxies Technology
JPL Solar System Dynamics
BODIES ORBITS EPHEMERIDES TOOLS PHYSICAL DATA DISCOVERY FAQ SITE MAP
JPL Small-Body Database Browser
Search: [ help ]  
(2013 EA)
Classification: Amor [NEO]          SPK-ID: 3629083
Ephemeris | Orbit Diagram | Orbital Elements | Physical Parameters | Close-Approach Data ]

[ hide orbit diagram ]
Orbit Diagram
Note: Make sure you have Java enabled on your browser to see the applet. This applet is provided as a 3D orbit visualization tool. The applet was implemented using 2-body methods, and hence should not be used for determining accurate long-term trajectories (over several years or decades) or planetary encounter circumstances. For accurate long-term ephemerides, please instead use our Horizons system.
Orbit Viewer

Additional Notes: the orbits shown in the applet are color coded. The planets are white lines, and the asteroid/comet is a blue line. The bright white line indicates the portion of the orbit that is above the ecliptic plane, and the darker portion is below the ecliptic plane. Likewise for the asteroid/comet orbit, the light blue indicates the portion above the ecliptic plane, and the dark blue the portion below the ecliptic plane.

Orbit Viewer applet originally written and kindly provided by Osamu Ajiki (AstroArts), and further modified by Ron Baalke (JPL).


Orbital Elements at Epoch 2456400.5 (2013-Apr-18.0) TDB
Reference: JPL 34 (heliocentric ecliptic J2000)
 Element Value Uncertainty (1-sigma)   Units 
e .5279467134107483 2.9915e-05  
a 2.263111077140217 0.00015088 AU
q 1.068309021880581 3.5255e-06 AU
i 9.625412603429346 0.00038122 deg
node 174.7942681574549 5.3153e-05 deg
peri 359.0596246453843 0.00010735 deg
M 9.614940390286105 0.00099049 deg
tp 2456367.287518330969
(2013-Mar-15.78751833)
0.00010304 JED
period 1243.532764168833
3.40
0.12436
0.0003405
d
yr
n .2894978004384317 2.8952e-05 deg/d
Q 3.457913132399852 0.00023054 AU
  Orbit Determination Parameters
   # obs. used (total)      277  
   data-arc span      62 days  
   first obs. used      2013-03-01  
   last obs. used      2013-05-02  
   planetary ephem.      DE405  
   SB-pert. ephem.      SB405-CPV-2  
   condition code      5  
   fit RMS      .59735  
   data source      ORB  
   producer      Otto Matic  
   solution date      2013-May-03 01:17:09  

Additional Information
 Earth MOID = .0735157 AU 
 T_jup = 3.404 
[ show covariance matrix ]

Ephemeris | Orbit Diagram | Orbital Elements | Physical Parameters | Close-Approach Data ]

Physical Parameter Table
Parameter Symbol Value Units Sigma Reference Notes
absolute magnitude H 22.146 mag .6899 3 autocmod 2.5b

[ show close-approach data ]
Ephemeris | Orbit Diagram | Orbital Elements | Physical Parameters | Close-Approach Data ]
ABOUT SSD CREDITS/AWARDS PRIVACY/COPYRIGHT GLOSSARY LINKS
FirstGov 2013-May-22 17:40 UT
(server date/time)  
NASA Home Page
Site Manager:   Donald K. Yeomans
Webmaster  Alan B. Chamberlin